Location: Berg
(47.2344°N, 9.5296°E)
Time: 07:21:47
(UTC+00:00)

Envisat - Pass Details

Date: 19 September 2021
Orbit: 764 x 766 km, 98.2° (Epoch: 25 October)

Event Time Altitude Azimuth Distance (km) Brightness Sun altitude
Rises 04:19:17 0° 17° (NNE) 3,244 6.7 -8.5°
Reaches altitude 10° 04:21:39 10° 21° (NNE) 2,313 6.0 -8.1°
Maximum altitude 04:26:40 57° 100° (E) 900 3.8 -7.2°
Drops below altitude 10° 04:31:39 10° 179° (S) 2,295 5.4 -6.4°
Sets 04:33:59 0° 184° (S) 3,216 6.1 -6.0°
